[Date Prev][Date Next][Thread Prev][Thread Next] - [Date Index][Thread Index][Author Index]

2 Line ISS Keps 5-2



ISS
1 25544U 98067A   02122.26082373  .00039615  00000-0  51066-3 0  3807
2 25544  51.6369 283.7830 0007462  26.5739  33.3586 15.58581539196862


----
Via the sarex mailing list at AMSAT.ORG courtesy of AMSAT-NA.
To unsubscribe, send "unsubscribe sarex" to Majordomo@amsat.org



AMSAT Top AMSAT Home